Flag for Germany Weather past 2 weeks in Neu-Isenburg, Hesse, Germany

Now
69 °F

Low clouds.


Feels Like: 69 °F
Forecast: 57 / 83 °F
Wind: 5 mph from Southwest

Location: Frankfurt / M-Flughafen

Current Time: Aug 4, 2015 at 5:02:36 PM

Latest Report: Aug 4, 2015 at 4:00 PM


Visibility: 13 mi

Pressure: 30.00 "Hg

Humidity: 93%

Dew point: 67 °F

Location of Neu-IsenburgLocation

Historic Weather in Neu-Isenburg — Graph

°F

Neu-Isenburg temperature yesterday

Maximum temperature yesterday: 91 °F (at 5:00 PM)
Minimum temperature yesterday: 62 °F (at 6:00 AM)
Average temperature yesterday: 78 °F

Past Weeks' High & Low Weather Summary

 TemperatureHumidityPressure
High91 °F (Aug 3, 5:00 PM)98% (Jul 25, 5:00 AM)30.14 "Hg (Jul 25, 5:00 AM)
Low47 °F (Jul 30, 4:00 AM)20% (Aug 2, 5:00 PM)29.63 "Hg (Jul 27, 8:00 AM)
Average70 °F55%29.91 "Hg
* Reported Jul 20 4:00 PM — Aug 4 4:00 PM, Neu-Isenburg, Weather by CustomWeather, © 2015

Note: Actual official high and low records may vary slightly from our data, if they occured in-between our weather recording intervals... More about our weather records

Advertising

Neu-Isenburg weather history for previous 24 hours

 ConditionsComfort  
Time TempWeatherWind HumidityBarometerVisibility
4:00 PM
Tue, Aug 4
69 °FLow clouds.5 mph93%30.00 "Hg12 mi
3:00 PM67 °FLight rain. Overcast.8 mph96%30.01 "Hg6 mi
2:00 PM71 °FLight rain. Overcast.10 mph73%29.98 "Hg11 mi
1:00 PM80 °FOvercast.13 mph44%29.93 "Hg31 mi
12:00 PM83 °FPartly sunny.8 mph36%29.90 "Hg31 mi
10:00 AM80 °FPartly sunny.2 mph39%29.86 "Hg34 mi
9:00 AM76 °FScattered clouds.1 mph46%29.88 "Hg34 mi
8:00 AM72 °FScattered clouds.2 mph51%29.88 "Hg34 mi
7:00 AM67 °FPassing clouds.1 mph62%29.89 "Hg34 mi
6:00 AM66 °FScattered clouds.2 mph65%29.88 "Hg34 mi
4:00 AM68 °FPassing clouds.3 mph57%29.91 "Hg37 mi
3:00 AM70 °FPassing clouds.2 mph56%29.92 "Hg37 mi
2:00 AM68 °FPassing clouds.2 mph59%29.93 "Hg37 mi
1:00 AM68 °FPassing clouds.2 mph60%29.93 "Hg37 mi
10:00 PM
Mon, Aug 3
75 °FPassing clouds.1 mph45%29.93 "Hg37 mi
9:00 PM81 °FPassing clouds.1 mph37%29.93 "Hg43 mi
8:00 PM89 °FPassing clouds.3 mph24%29.92 "Hg43 mi
7:00 PM90 °FPassing clouds.5 mph22%29.93 "Hg43 mi
6:00 PM91 °FPassing clouds.6 mph21%29.94 "Hg43 mi
5:00 PM91 °FPassing clouds.3 mph22%29.95 "Hg40 mi
Weather by CustomWeather, © 2015

See weather overviewHow to use our weather pages